Regional Weather Roundup
Issued by NWS

Home | Current Version | Previous Version | Text Only | Print | Product List | Glossary Off
Versions: 1 2 3 4 5 6 7 8 9 10 11 12 13 14 15 16 17 18 19 20 21 22 23 24 25 26 27 28 29 30 31 32 33 34 35 36 37 38 39 40 41 42 43 44 45 46 47 48 49 50

000
ASUS43 KLSX 022059
RWRMO

WEATHER SUMMARY FOR MISSOURI
NATIONAL WEATHER SERVICE SPRINGFIELD MO
400 PM CDT SUN AUG 02 2015

NOTE: "FAIR" INDICATES FEW OR NO CLOUDS BELOW 12,000 FEET WITH NO
       SIGNIFICANT WEATHER AND/OR OBSTRUCTIONS TO VISIBILITY.
       CURRENT SKY AND/OR WEATHER CONDITIONS ARE NOT AVAILABLE FOR
       CHILLICOTHE AND FARMINGTON.

MOZ001>031-035>038-043-044-053-054-022200-
...NORTHERN AND WESTERN MISSOURI...

CITY           SKY/WX    TMP DP  RH WIND       PRES   REMARKS
KANSAS CTY INT MOSUNNY   89  71  55 SW10      29.88F HX  95
KANSAS C DTWN  SUNNY     93  67  42 SW14      29.86F HX  96
LEE`S SUMMIT   SUNNY     92  64  39 SW13      29.88F HX  93
ST JOSEPH      SUNNY     89  73  59 SW12      29.84F HX  97
CHILLICOTHE      N/A     91  71  51 SW9       29.85F HX  97
KIRKSVILLE     SUNNY     89  70  53 SW13G22   29.86S HX  94

$$
MOZ066>068-077>081-088>096-101>105-022200-
...SOUTHWEST MISSOURI...

CITY           SKY/WX    TMP DP  RH WIND       PRES   REMARKS
SPRINGFIELD    MOSUNNY   90  63  40 SW10      29.94F HX  91
JOPLIN         MOSUNNY   93  64  38 SW15      29.93F HX  94

$$
MOZ032>034-039>042-045>050-055>058-069>072-022200-
...CENTRAL MISSOURI...

CITY           SKY/WX    TMP DP  RH WIND       PRES   REMARKS
COLUMBIA       MOSUNNY   90  69  50 SW13      29.90F HX  94
JEFFERSON CITY MOSUNNY   91  65  41 SW10      29.88F HX  93
ROLLA          SUNNY     91  63  39 SW13      29.91F HX  92
SEDALIA        MOSUNNY   91  67  44 SW15      29.91F HX  94
WARRENSBURG    SUNNY     91  63  38 SW9G16    29.88F HX  92
OSAGE BEACH    SUNNY     91  63  38 W8        29.91F HX  92

$$
MOZ051-052-059>065-022200-
...EAST CENTRAL MISSOURI...

CITY           SKY/WX    TMP DP  RH WIND       PRES   REMARKS
ST LOUIS INTL  PTSUNNY   95  68  41 W8        29.88F HX  99
SPIRIT OF STL  MOSUNNY   93  71  48 W9        29.86F HX 100
ST CHARLES     SUNNY     94  68  42 SW13      29.86F HX  98

$$
MOZ072>076-082>087-097>100-106>115-022200-
...SOUTH CENTRAL AND SOUTHEAST MISSOURI...

CITY           SKY/WX    TMP DP  RH WIND       PRES   REMARKS
CAPE GIRARDEAU SUNNY     88  73  61 S7        29.90F HX  95
FARMINGTON     MOSUNNY   91  68  46 S9        29.95F HX  95
POPLAR BLUFF   SUNNY     91  72  53 SW9       29.90F HX  98
WEST PLAINS    MOSUNNY   90  67  46 W8        29.96F HX  93

$$



USA.gov is the U.S. government's official web portal to all federal, state and local government web resources and services.